sat.trackr.live / text

‹ back to catalog

STARLINK-5954

NORAD 56318 · 2023-058B

PAYLOAD ACTIVE UNKNOWN

§ Identity

Operator
Country
US
Launch date
2023-04-27
Launch site
AFWTR
Launch vehicle
Mass (kg)
RCS (m²)

Purposes: comms

External: N2YO · Heavens-Above · Gunter

§ Orbital elements

Epoch: 2026-09-20T22:53:47.451552Z

Period
93.91 min
Inclination
97.2843°
Eccentricity
0.0001595
Mean motion
15.33439936 rev/d
Perigee alt
464.5 km
Apogee alt
466.6 km
Semi-major
6,843.7 km
B*
2.2822e-5
RAAN
260.6876°
Arg perigee
93.8178°
Mean anomaly
266.3247°
Rev number
18,735

§ Raw data

STARLINK-59541 56318U 23058B   26263.95402143  .00000662  00000+0  22822-4 0  99912 56318  97.2843 260.6876 0001595  93.8178 266.3247 15.33439936187359

JSON: /api/v1/satellites/56318 · /tle

For live sub-satellite position, see the globe view (requires WebGL).

§ Visibility from observer

Set your observer location to see the next 7 days of passes ≥ 10°. The values pass through the URL so the page stays shareable.

No JS? Fill the form by hand. The geolocation button needs JavaScript.